www.pogodaiklimat.ru

Погода и климат >> Архив погоды >> Норвегия >> Акселойа


ПОГОДА на Акселойа

  • Прогноз погоды на Акселойа
  • Монитор погоды на Акселойа

АРХИВ ПОГОДЫ на Акселойа

Время (UTC), дата Ветер
(напр.,м/с)
 
Видим.   Явления Облачность Т
(С)
Тd
(С)
f
(%)
Тe
(С)
Тes
(С)
Комфортность P
(гПа)
Po
(гПа)
Тmin
(С)
Tmax
(С)
R
(мм)
R24
(мм)
S
(см)
11 15.01 В 7
{9}
н/о н/о -12.0 -15.7 74 -21 -21 1002.1 1001.2
10 15.01 СВ 6
{9}
н/о н/о -11.9 -15.1 77 -21 -21 1002.3 1001.5
12 15.01 СВ 7
{9}
н/о н/о -12.1 -15.1 78 -22 -22 1002.3 1001.4
13 15.01 СВ 6
{8}
н/о н/о -12.2 -15.5 76 -21 -21 1002.4 1001.6
14 15.01 В 6
{9}
н/о н/о -12.4 -15.4 78 -21 -21 1002.4 1001.6
15 15.01 СВ 8
{9}
н/о н/о -12.4 -15.8 76 -23 -23 1002.4 1001.6
17 15.01 СВ 6
{8}
н/о н/о -12.5 -15.6 78 -21 -21 1002.5 1001.7
16 15.01 В 6
{9}
н/о н/о -12.4 -15.5 78 -21 -21 1002.6 1001.8
18 15.01 СВ 6
{9}
н/о н/о -12.7 -15.8 78 -22 -22 1002.5 1001.7 -12.8 -11.5
19 15.01 СВ 6
{8}
н/о н/о -12.7 -15.8 78 -22 -22 1002.5 1001.6
20 15.01 СВ 5
{7}
н/о н/о -12.7 -15.5 80 -21 -21 1002.5 1001.6
21 15.01 В 5
{7}
н/о н/о -12.8 -15.6 79 -21 -21 1002.6 1001.8
23 15.01 СВ 6
{8}
н/о н/о -12.6 -15.2 81 -22 -22 1002.4 1001.6
22 15.01 В 6
{7}
н/о н/о -12.8 -15.9 78 -22 -22 1002.4 1001.6
00 16.01 В 7
{8}
н/о н/о -12.9 -15.3 82 -23 -23 1002.3 1001.4
01 16.01 СВ 7
{9}
н/о н/о -13.0 -15.3 83 -23 -23 1002.3 1001.4
02 16.01 СВ 7
{9}
н/о н/о -12.9 -15.7 79 -23 -23 1002.2 1001.3
03 16.01 В 6
{9}
н/о н/о -12.9 -15.3 82 -22 -22 1002.2 1001.3
05 16.01 СВ 7
{8}
н/о н/о -13.1 -15.8 80 -23 -23 1002.0 1001.2
04 16.01 СВ 6
{8}
н/о н/о -13.1 -15.5 82 -22 -22 1002.3 1001.4
06 16.01 СВ 7
{9}
н/о н/о -13.2 -15.8 81 -23 -23 1001.9 1001.1 -13.2 -12.5
07 16.01 В 7
{9}
н/о н/о -13.3 -15.7 82 -23 -23 1001.9 1001.1
08 16.01 СВ 7
{8}
н/о н/о -13.2 -15.9 80 -23 -23 1002.2 1001.4
09 16.01 В 7
{8}
н/о н/о -13.2 -16.3 77 -23 -23 1002.3 1001.4
11 16.01 СВ 6
{7}
н/о н/о -13.1 -16.4 76 -22 -22 1002.7 1001.8
10 16.01 СВ 5
{10}
н/о н/о -13.2 -16.8 74 -22 -22 1002.7 1001.9
12 16.01 В 4
{10}
н/о н/о -12.9 -17.2 70 -20 -20 1002.7 1001.9
13 16.01 В 3
{5}
н/о н/о -12.9 -16.6 74 -19 -19 1002.6 1001.8
14 16.01 В 2
{5}
н/о н/о -13.0 -16.9 72 -18 -18 1002.5 1001.6
15 16.01 СВ 2
{4}
н/о н/о -12.8 -18.0 65 -17 -17 1002.4 1001.6
17 16.01 штиль 0 н/о н/о -13.0 -16.6 74 -13 -13 1002.2 1001.3
16 16.01 штиль 0
{2}
н/о н/о -12.5 -16.7 71 -13 -13 1002.3 1001.5
18 16.01 С 1
{5}
н/о н/о -12.1 -16.1 72 -14 -14 1002.0 1001.1 -13.6 -12.0
19 16.01 В 1
{3}
н/о н/о -12.0 -14.9 79 -14 -14 1001.9 1001.1
20 16.01 СВ 3
{4}
н/о н/о -12.0 -14.4 82 -18 -18 1001.9 1001.0
21 16.01 В 4
{5}
н/о н/о -12.2 -14.6 82 -19 -19 1001.9 1001.1
23 16.01 В 4
{5}
н/о н/о -12.1 -15.4 76 -19 -19 1001.9 1001.0
22 16.01 СВ 3
{6}
н/о н/о -12.2 -14.8 81 -18 -18 1002.0 1001.2
00 17.01 В 4
{6}
н/о н/о -12.2 -15.3 78 -19 -19 1001.8 1000.9
01 17.01 СВ 6
{7}
н/о н/о -12.1 -16.6 69 -21 -21 1001.7 1000.8
02 17.01 СВ 8
{9}
н/о н/о -12.1 -16.6 69 -22 -22 1001.6 1000.7
03 17.01 СВ 8
{9}
н/о н/о -12.0 -16.5 69 -22 -22 1001.4 1000.6
05 17.01 СВ 9
{11}
н/о н/о -11.7 -16.2 69 -22 -22 1001.3 1000.4
04 17.01 СВ 8 н/о н/о -11.6 -14.6 78 -22 -22 1001.4 1000.5
06 17.01 СВ 10
{13}
н/о н/о -12.0 -15.9 73 -23 -23 1001.1 1000.3 -12.4 -11.6
07 17.01 СВ 8
{10}
н/о н/о -11.9 -15.6 74 -22 -22 1001.1 1000.3
08 17.01 В 9
{11}
н/о н/о -12.0 -15.9 73 -23 -23 1001.2 1000.4
09 17.01 СВ 11
{12}
н/о н/о -11.9 -15.3 76 -23 -23 1001.1 1000.2
11 17.01 СВ 13
{16}
н/о н/о -12.1 -16.0 73 -24 -24 1000.8 999.9
10 17.01 СВ 11
{13}
н/о н/о -12.0 -14.9 79 -23 -23 1001.4 1000.5
12 17.01 В 12
{16}
н/о н/о -12.0 -15.4 76 -24 -24 1000.7 999.8
13 17.01 СВ 14
{16}
н/о н/о -12.3 -16.7 70 -25 -25 1000.2 999.3
14 17.01 СВ 13
{18}
н/о н/о -12.3 -16.8 69 -25 -25 1000.2 999.3
15 17.01 В 13
{17}
н/о н/о -12.4 -16.1 74 -25 -25 1000.2 999.4
17 17.01 СВ 12
{15}
н/о н/о -12.5 -16.5 72 -25 -25 1000.1 999.3
16 17.01 В 13
{15}
н/о н/о -12.5 -16.4 73 -25 -25 1000.0 999.2
18 17.01 В 14
{18}
н/о н/о -12.7 -16.7 72 -26 -26 999.7 998.9 -12.8 -11.7
19 17.01 В 15
{17}
н/о н/о -12.8 -17.5 68 -26 -26 999.4 998.5
20 17.01 В 14
{18}
н/о н/о -13.0 -16.7 74 -26 -26 999.2 998.4
21 17.01 В 14
{16}
н/о н/о -13.0 -16.6 74 -26 -26 999.3 998.4
23 17.01 В 15
{17}
н/о н/о -13.2 -17.7 69 -27 -27 998.9 998.1
22 17.01 В 14
{18}
н/о н/о -13.2 -17.1 72 -26 -26 999.1 998.3
00 18.01 В 15
{18}
н/о н/о -13.1 -16.5 76 -26 -26 998.2 997.3
01 18.01 В 15
{18}
н/о н/о -13.2 -17.2 72 -27 -27 998.1 997.2
02 18.01 СВ 15
{18}
н/о н/о -13.1 -17.4 70 -26 -26 997.9 997.0
03 18.01 СВ 12
{17}
н/о н/о -13.1 -17.1 72 -25 -25 998.0 997.2
05 18.01 СВ 13
{17}
н/о н/о -13.2 -17.4 71 -26 -26 997.8 996.9
04 18.01 СВ 13
{18}
н/о н/о -13.2 -17.4 71 -26 -26 997.8 997.0
06 18.01 СВ 13
{18}
н/о н/о -13.0 -17.2 71 -26 -26 997.6 996.8 -13.5 -12.5
07 18.01 СВ 13
{17}
н/о н/о -13.2 -17.2 72 -26 -26 997.3 996.4
08 18.01 В 14
{17}
н/о н/о -13.4 -17.7 70 -26 -26 997.4 996.6
09 18.01 СВ 13
{16}
н/о н/о -13.6 -17.8 71 -26 -26 997.7 996.9
11 18.01 В 13
{18}
н/о н/о -13.8 -18.4 68 -27 -27 998.0 997.1
10 18.01 В 14
{17}
н/о н/о -13.6 -17.6 72 -27 -27 997.8 996.9
12 18.01 СВ 13
{18}
н/о н/о -13.9 -18.4 69 -27 -27 998.1 997.2
13 18.01 СВ 10
{14}
н/о н/о -14.1 -18.4 70 -26 -26 998.5 997.6
14 18.01 СВ 10
{14}
н/о н/о -14.2 -18.3 71 -26 -26 998.6 997.8
15 18.01 СВ 10
{12}
н/о н/о -14.5 -18.6 71 -26 -26 998.6 997.8
16 18.01 В 11
{13}
н/о н/о -14.6 -18.6 72 -27 -27 998.7 997.8
18 18.01 В 10 н/о н/о -14.6 -18.7 71 -26 -26 998.7 997.9
19 18.01 В 9
{12}
н/о н/о -14.8 -18.6 73 -26 -26 999.0 998.2
20 18.01 СВ 8
{11}
н/о н/о -14.8 -18.3 75 -26 -26 999.2 998.3
21 18.01 СВ 8
{10}
н/о н/о -14.9 -18.7 73 -26 -26 999.4 998.5
22 18.01 СВ 6
{10}
н/о н/о -15.2 -19.8 68 -25 -25 999.8 998.9
23 18.01 СВ 7
{9}
н/о н/о -15.1 -20.5 63 -25 -25 1000.0 999.1
00 19.01 СВ 6
{12}
н/о н/о -15.2 -19.9 67 -25 -25 1000.0 999.1
01 19.01 СВ 6
{8}
н/о н/о -15.2 -19.8 68 -25 -25 1000.1 999.3
02 19.01 В 7
{8}
н/о н/о -15.2 -19.3 71 -26 -26 1000.1 999.3
03 19.01 В 6
{8}
н/о н/о -15.2 -18.8 74 -25 -25 1000.3 999.4
04 19.01 СВ 6
{8}
н/о н/о -15.3 -19.2 72 -25 -25 1000.4 999.5
05 19.01 В 5
{8}
н/о н/о -15.3 -18.8 75 -24 -24 1000.5 999.7
06 19.01 СВ 5
{8}
н/о н/о -15.4 -19.8 69 -24 -24 1000.9 1000.0 -15.5 -14.6
07 19.01 В 5
{7}
н/о н/о -15.3 -19.2 72 -24 -24 1001.2 1000.4
08 19.01 В 4
{8}
н/о н/о -15.7 -19.3 74 -24 -24 1001.5 1000.7
09 19.01 В 5
{5}
н/о н/о -15.3 -19.9 68 -24 -24 1001.9 1001.1
10 19.01 СВ 4
{6}
н/о н/о -15.3 -19.4 71 -23 -23 1002.4 1001.5
11 19.01 В 4
{5}
н/о н/о -15.4 -20.1 67 -23 -23 1002.7 1001.8
12 19.01 СВ 5
{8}
н/о н/о -15.3 -19.4 71 -24 -24 1003.0 1002.1
13 19.01 СВ 5
{6}
н/о н/о -15.4 -19.5 71 -24 -24 1003.2 1002.3
14 19.01 СВ 5
{6}
н/о н/о -15.3 -19.1 73 -24 -24 1003.6 1002.7
15 19.01 СВ 5
{7}
н/о н/о -15.2 -18.6 75 -24 -24 1003.8 1002.9
16 19.01 СВ 6
{7}
н/о н/о -15.3 -18.4 77 -25 -25 1004.2 1003.3
17 19.01 В 6
{8}
н/о н/о -15.5 -18.7 76 -25 -25 1004.7 1003.8
18 19.01 В 5
{8}
н/о н/о -15.5 -18.7 76 -24 -24 1005.0 1004.1 -15.7 -15.1
19 19.01 В 6
{8}
н/о н/о -15.7 -19.0 76 -25 -25 1005.3 1004.5
20 19.01 В 7
{9}
н/о н/о -15.8 -19.3 74 -26 -26 1005.7 1004.8
21 19.01 СВ 7
{8}
н/о н/о -15.9 -19.0 77 -26 -26 1006.3 1005.4
22 19.01 СВ 6
{7}
н/о н/о -15.8 -18.9 77 -26 -26 1006.8 1006.0
23 19.01 СВ 6
{8}
н/о н/о -16.0 -19.2 76 -26 -26 1007.4 1006.6
00 20.01 СВ 6
{9}
н/о н/о -16.1 -19.4 76 -26 -26 1007.9 1007.1
01 20.01 В 6
{8}
н/о н/о -16.2 -20.3 71 -26 -26 1008.3 1007.5
02 20.01 В 6
{8}
н/о н/о -16.2 -20.6 69 -26 -26 1008.7 1007.8
03 20.01 В 6
{7}
н/о н/о -16.1 -19.6 74 -26 -26 1009.2 1008.4
04 20.01 В 7 н/о н/о -16.2 -20.1 72 -27 -27 1009.5 1008.7
05 20.01 В 7
{9}
н/о н/о -16.2 -19.4 76 -27 -27 1009.8 1009.0
06 20.01 СВ 8
{9}
н/о н/о -16.3 -19.6 76 -28 -28 1010.0 1009.1 -16.4 -15.5
07 20.01 СВ 7
{9}
н/о н/о -16.5 -19.8 76 -27 -27 1010.7 1009.8
08 20.01 В 7
{8}
н/о н/о -16.5 -19.8 76 -27 -27 1011.2 1010.3
09 20.01 В 6
{8}
н/о н/о -16.7 -21.4 67 -27 -27 1011.9 1011.0
10 20.01 В 7
{7}
н/о н/о -16.4 -20.6 70 -27 -27 1012.2 1011.3
11 20.01 В 7
{9}
н/о н/о -16.6 -19.9 76 -27 -27 1012.5 1011.6
12 20.01 СВ 7
{9}
н/о н/о -16.8 -19.8 77 -28 -28 1012.8 1011.9
13 20.01 СВ 7
{9}
н/о н/о -16.8 -19.8 77 -28 -28 1012.9 1012.0
14 20.01 СВ 7
{8}
н/о н/о -17.0 -19.9 78 -28 -28 1013.3 1012.4
15 20.01 В 7
{9}
н/о н/о -16.9 -20.4 74 -28 -28 1013.4 1012.5
16 20.01 СВ 8
{9}
н/о н/о -17.0 -20.0 77 -29 -29 1013.7 1012.8
17 20.01 СВ 8
{9}
н/о н/о -17.0 -20.3 75 -29 -29 1013.8 1012.9
18 20.01 СВ 7
{9}
н/о н/о -17.3 -19.9 80 -28 -28 1014.2 1013.3 -17.3 -16.3
19 20.01 В 8
{9}
н/о н/о -17.1 -20.7 74 -29 -29 1014.3 1013.4
20 20.01 СВ 8
{10}
н/о н/о -17.1 -20.0 78 -29 -29 1014.4 1013.5
21 20.01 СВ 8
{9}
н/о н/о -17.2 -19.9 79 -29 -29 1014.7 1013.8
22 20.01 В 8
{10}
н/о н/о -17.5 -20.7 76 -29 -29 1015.1 1014.2
23 20.01 В 8
{9}
н/о н/о -17.3 -20.2 78 -29 -29 1015.4 1014.5
00 21.01 В 8
{10}
н/о н/о -17.2 -20.8 73 -29 -29 1015.4 1014.6
01 21.01 СВ 7
{9}
н/о н/о -17.4 -20.1 79 -28 -28 1015.8 1014.9
02 21.01 СВ 9
{10}
н/о н/о -17.5 -20.4 78 -30 -30 1015.6 1014.7
03 21.01 СВ 9
{10}
н/о н/о -17.6 -20.3 79 -30 -30 1015.8 1014.9
04 21.01 СВ 9 н/о н/о -17.5 -20.2 79 -30 -30 1015.8 1014.9
05 21.01 СВ 9
{11}
н/о н/о -17.6 -20.5 78 -30 -30 1015.9 1015.0
06 21.01 СВ 9
{11}
н/о н/о -17.5 -20.2 79 -30 -30 1016.3 1015.5 -17.9 -17.0
07 21.01 СВ 8
{10}
н/о н/о -17.5 -20.1 80 -29 -29 1016.7 1015.9
08 21.01 В 8
{10}
н/о н/о -17.2 -20.8 73 -29 -29 1016.9 1016.1
09 21.01 В 8
{10}
н/о н/о -17.3 -21.2 72 -29 -29 1017.3 1016.4
10 21.01 СВ 9
{10}
н/о н/о -17.3 -20.9 73 -29 -29 1017.7 1016.8
11 21.01 СВ 8
{10}
н/о н/о -17.1 -20.4 75 -29 -29 1017.8 1016.9
12 21.01 СВ 8
{12}
н/о н/о -17.0 -20.0 77 -29 -29 1018.1 1017.2
13 21.01 В 9
{11}
н/о н/о -16.9 -21.3 69 -29 -29 1018.0 1017.2
14 21.01 СВ 8
{12}
н/о н/о -17.1 -20.3 76 -29 -29 1018.2 1017.3
15 21.01 СВ 9
{12}
н/о н/о -17.3 -20.3 77 -29 -29 1018.4 1017.5
16 21.01 СВ 9
{10}
н/о н/о -16.9 -20.9 71 -29 -29 1018.4 1017.5
17 21.01 СВ 8
{11}
н/о н/о -17.3 -20.2 78 -29 -29 1018.8 1017.9
18 21.01 СВ 9
{12}
н/о н/о -17.0 -19.9 78 -29 -29 1018.8 1017.9 -17.7 -16.4
19 21.01 СВ 8
{10}
н/о н/о -16.9 -20.2 75 -28 -28 1019.2 1018.3
20 21.01 СВ 7
{10}
н/о н/о -16.9 -20.5 74 -28 -28 1019.5 1018.6
21 21.01 СВ 8
{9}
н/о н/о -16.8 -20.1 76 -28 -28 1019.6 1018.7
22 21.01 СВ 8
{10}
н/о н/о -16.3 -19.6 76 -28 -28 1019.6 1018.7
23 21.01 СВ 8
{10}
н/о н/о -16.4 -20.5 71 -28 -28 1019.9 1019.0
00 22.01 СВ 7
{10}
н/о н/о -16.1 -19.6 74 -27 -27 1020.0 1019.2
01 22.01 СВ 8
{9}
н/о н/о -15.7 -18.8 77 -27 -27 1019.9 1019.1
02 22.01 СВ 7
{9}
н/о н/о -15.5 -19.1 74 -26 -26 1020.2 1019.3
03 22.01 СВ 8
{9}
н/о н/о -15.2 -19.0 73 -26 -26 1020.3 1019.4
04 22.01 СВ 9
{11}
н/о н/о -15.3 -18.9 74 -27 -27 1020.2 1019.4
05 22.01 СВ 8
{10}
н/о н/о -15.0 -18.2 76 -26 -26 1020.5 1019.7
06 22.01 СВ 8
{11}
н/о н/о -15.1 -18.6 75 -26 -26 1020.7 1019.8 -17.2 -14.6
07 22.01 В 9
{11}
н/о н/о -14.5 -17.7 77 -26 -26 1020.9 1020.0
08 22.01 В 9
{11}
н/о н/о -14.6 -17.7 77 -26 -26 1021.3 1020.4
09 22.01 В 10
{11}
н/о н/о -14.5 -17.6 77 -26 -26 1021.6 1020.7
10 22.01 В 10
{14}
н/о н/о -14.5 -17.9 75 -26 -26 1021.8 1020.9

 

Местоположение метеостанции Акселойа (Норвегия): широта 77.68 долгота 14.78 высота над уровнем моря 6 м.

В архиве по умолчанию представлена погода на Акселойа за последнюю неделю. Архивные данные за месяц целиком и за предыдущие месяцы, начиная с января 2011 года, Вы можете получить, выбрав интересующий диапазон дат из раскрывающегося списка и нажав кнопку "Ввод!".


*Определитесь, кто Вы:
робот инопланетянин человек

Внимание! Время в таблицах - всемирное. Для получения местного времени необходимо прибавить поправку, которая равна 1 ч.

Смотрите также архив погоды в соседних городах и на ближайших метеорологических станциях:

Погода в Баренцбурге (Шпицберген, Россия) (45 км)
Погода в Свальбард аэропорту (Норвегия) (66 км)
Погода на Хорнсунне (Норвегия) (78 км)
Погода в Пирамиде (Норвегия) (115 км)
Погода на Сёркаппёйа (Норвегия) (141 км)
Погода в Ню-Олесунн (Норвегия) (152 км)
Погода на Эдже (Норвегия) (197 км)
Погода на Верлегенхукен (Норвегия) (265 км)
Погода в Хопене (Норвегия) (285 км)
Погода на Конгсёйа (Норвегия) (346 км)

Пояснения к столбцам:

Ветер - указаны скорость ветра в м/с - средняя за 10 мин, порывы в срок и между сроками (в фигурных скобках) и направление, откуда дует ветер: С - северный, СВ - северо-восточный, В - восточный, ЮВ - юго-восточный, Ю - южный, ЮЗ - юго-западный, З - западный, СЗ - северо-западный.
Видимость - горизонтальная дальность видимости в метрах или километрах. При видимости от 1 до 10 км при отсутствии осадков обычно наблюдается дымка, при ухудшении видимости до 1 км и менее - туман. В сухую погоду видимость может ухудшаться дымом, пылью или мглою.
Явления - указаны атмосферные явления, наблюдавшиеся в срок или в последний час перед сроком; фигурными скобками обозначены явления, наблюдавшиеся между сроками (за 1-3 часа до срока); квадратными скобками обозначены град или гололедные отложения с указанием их диаметра в мм.
Облачность - указаны через наклонную черту общая и нижняя облачность в баллах и высота нижней границы облаков в метрах; квадратными скобками обозначены формы облаков: Ci - перистые, Cs - перисто-слоистые, Cc - перисто-кучевые, Ac - высококучевые, As - высокослоистые, Sc - слоисто-кучевые, Ns - слоисто-дождевые, Cu - кучевые, Cb - кучево-дождевые. Подробнее классификацию облаков см. в Атласе облаков (PDF).
T - Температура воздуха - температура, измеренная на высоте 2 м над землей.
Td - Температура точки росы - температура, при понижении до которой содержащийся в воздухе водяной пар достигнет насыщения.
f - Относительная влажность воздуха - влажноcть воздуха, измеренная на высоте 2 м над землей.
Te - Эффективная температура - температура, которую ощущает одетый по сезону человек в тени. Характеристика душности погоды. При расчете учитывается влияние влажности воздуха и скорости ветра на теплоощущения человека.
Tes - Эффективная температура на солнце - температура, которую ощущает человек, с поправкой на солнечный нагрев. Характеристика знойности погоды. Зависит от высоты солнца над горизонтом, облачности и скорости ветра. Ночью, в пасмурную погоду, а также при ветре 12 м/с и более поправка равна нулю.
P - Атмосферное давление - приведенное к уровню моря атмосферное давление.
Po - Атмосферное давление - измеренное на уровне метеостанции атмосферное давление.
Tmin - Минимальная температура - минимум температуры воздуха на высоте 2 м над землей.
Tmax - Максимальная температура - максимум температуры воздуха на высоте 2 м над землей.
R - Количество осадков - Количество выпавших осадков за период времени, мм. При наведении курсора мыши на число - период времени, за который выпало указанное количество осадков.
R24 - Количество осадков - Количество выпавших осадков за 24 часа, мм.
S - Снежный покров - Высота снежного покрова, см. При наведении курсора мыши на число - состояние снежного покрова и степень покрытия местности в баллах.